EHI
0 0 0 0 0 0 0 0 0 0 0 0 0 0 0 0 0 0 0 0 0 0 0 0 0 0 0 0 0 0 0 0 0 0 0 0 0 0 0 0 0 0 0
0 0 0 0 0 0 0 0 0 0 0 0 0 0 0 0 0 0 0 0 0 0 0 0 0 0 0 0 0 0 0 0 0 0 0 0 0 0 0 0 0 0 0
0 0 0 0 0 0 0 0 0 0 0 0 0 0 0 0 0 0 0 0 0 0 0 0 0 0 0 0 0 0 0 0 0 0 0 0 0 0 0 0 0 0 0
0 0 0 0 0 0 0 0 0 0 0 0 0 0 0 0 0 0 0 0 0 0 0 0 0 0 0 0 0 0 0 0 0 0 0 0 0 0 0 0 0 0 0
0 0 0 0 0 0 0 0 0 0 0 0 0 0 0 0 0 0 0 0 0 0 0 0 0 0 0 0 0 0 0 0 0 0 0 0 0 0 0 0 0 0 0
0 0 0 0 0 0 0 0 0 0 0 0 0 0 0 0 0 0 0 0 0 0 0 0 0 0 0 0 0 0 0 0 0 0 0 0 0 0 0 0 0 0 0
0 0 0 0 0 0 0 0 0 0 0 0 0 0 0 0 0 0 0 0 0 0 0 0 0 0 0 0 0 0 0 0 0 0 0 0 0 0 0 0 0 0 0
0 0 0 0 0 0 0 0 0 0 0 0 0 0 0 0 0 0 0 0 0 0 0 0 0 0 0 0 0 0 0 0 0 0 0 0 0 0 0 0 0 0 0
0 0 0 0 0 0 0 0 0 0 0 0 0 0 0 0 0 0 0 0 0 0 0 0 0 0 0 0 0 0 0 0 0 0 0 0 0 0 0 0 0 0 0
0 0 0 0 0 0 0 0 0 0 0 0 0 0 0 0 0 0 0 0 0 0 0 0 0 0 0 0 0 0 0 0 0 0 0 0 0 0 0 0 0 0 0
0 0 0 0 0 0 0 0 0 0 0 0 0 0 0 0 0 0 0 0 0 0 0 0 0 0 0 0 0 0 0 0 0 0 0 0 0 0 0 0 0 0 0
0 0 0 0 0 0 0 0 0 0 0 0 0 0 0 0 0 0 0 0 0 0 0 0 0 0 0 0 0 0 0 0 0 0 0 0 0 0 0 0 0 0 0
0 0 0 0 0 0 0 0 0 0 0 0 0 0 0 0 0 0 0 0 0 0 0 0 0 0 0 0 0 0 0 0 0 0 0 0 0 0 0 0 0 0 0
0 0 0 0 0 0 0 0 0 0 0 0 0 0 0 0 0 0 0 0 0 0 0 0 0 0 0 0 0 0 0 0 0 0 0 0 0 0 0 0 0 0 0
0 0 0 0 0 0 0 0 0 0 0 0 0 0 0 0 0 0 0 0 0 0 0 0 0 0 0 0 0 0 0 0 0 0 0 0 0 0 0 0 0 0 0
0 0 0 0 0 0 0 0 0 0 0 0 0 0 0 0 0 0 0 0 0 0 0 0 0 0 0 0 0 0 0 0 0 0 0 0 0 0 0 0 0 0 0
0 0 0 0 0 0 0 0 0 0 0 0 0 0 0 0 0 0 0 0 0 0 0 0 0 0 0 0 0 0 0 0 0 0 0 0 0 0 0 0 0 0 0
0 0 0 0 0 0 0 0 0 0 0 0 0 0 0 0 0 0 0 0 0 0 0 0 0 0 0 0 0 0 0 0 0 0 0 0 0 0 0 0 0 0 0
0 0 0 0 0 0 0 0 0 0 0 0 0 0 0 0 0 0 0 0 0 0 0 0 0 0 0 0 0 0 0 0 0 0 0 0 0 0 0 0 0 0 0
0 0 0 0 0 0 0 0 0 0 0 0 0 0 0 0 0 0 0 0 0 0 0 0 0 0 0 0 0 0 0 0 0 0 0 0 0 0 0 0 0 0 0
0 0 0 0 0 0 0 0 0 0 0 0 0 0 0 0 0 0 0 0 0 0 0 0 0 0 0 0 0 0 0 0 0 0 0 0 0 0 0 0 0 0 0
0 0 0 0 0 0 0 0 0 0 0 0 0 0 0 0 0 0 0 0 0 0 0 0 0 0 0 0 0 0 0 0 0 0 0 0 0 0 0 0 0 0 0
0 0 0 0 0 0 0 0 0 0 0 0 0 0 0 0 0 0 0 0 0 0 0 0 0 0 0 0 0 0 0 0 0 0 0 0 0 0 0 0 0 0 0
0 0 0 0 0 0 0 0 0 0 0 0 0 0 0 0 0 0 0 0 0 0 0 0 0 0 0 0 0 0 0 0 0 0 0 0 0 0 0 0 0 0 0
0 0 0 0 0 0 0 0 0 0 0 0 0 0 0 0 0 0 0 0 0 0 0 0 0 0 0 0 0 0 0 0 0 0 0 0 0 0 0 0 0 0 0
0 0 0 0 0 0 0 0 0 0 0 0 0 0 0 0 0 0 0 0 0 0 0 0 0 0 0 0 0 0 0 0 0 0 0 0 0 0 0 0 0 0 0
Wind_Speed
1 2 2 2 3 3 3 3 3 3 2 2 1 1 1 0 0 0 1 1 2 2 2 2 2 2 3 3 4 3 4 3 3 3 2 2 2 2 1 1 2 2 2
1 1 2 2 2 2 2 2 2 2 2 1 0 0 0 0 1 0 0 1 2 2 2 3 2 2 2 4 4 4 3 2 2 3 3 1 1 2 1 1 1 1 1
2 1 1 1 1 1 1 1 1 1 1 2 1 1 1 1 1 1 0 1 1 1 2 3 3 2 3 4 5 5 5 4 2 2 3 3 3 1 1 1 1 1 1
2 2 1 1 1 0 0 0 1 1 1 1 1 2 1 1 1 1 1 1 1 1 1 2 3 3 2 4 5 4 3 5 4 2 1 1 3 3 1 1 1 1 0
1 2 2 1 1 1 1 0 1 1 1 1 1 1 0 1 1 1 1 1 1 1 1 2 2 3 3 3 4 4 4 4 4 3 2 1 1 1 3 2 2 1 1
1 1 1 2 2 3 2 1 1 1 1 0 0 1 1 1 1 1 1 1 2 1 2 2 2 2 3 4 4 4 5 5 5 4 3 3 3 3 3 3 3 2 2
1 1 2 1 2 2 3 2 1 1 1 0 1 1 2 2 3 2 2 2 2 2 3 2 3 3 3 4 4 4 5 6 6 5 4 3 3 3 3 3 3 2 2
1 1 1 1 1 1 2 2 1 2 1 1 1 1 1 1 2 3 2 3 3 3 3 3 3 3 3 3 4 3 5 5 6 6 5 4 3 3 3 4 4 2 2
1 1 1 1 1 1 1 1 1 2 2 2 1 1 1 2 2 3 3 3 3 3 3 3 3 3 3 4 4 3 4 5 5 6 6 5 4 3 3 4 5 5 4
1 0 0 1 1 1 1 1 1 1 2 2 1 1 2 2 2 3 3 3 3 3 3 3 3 3 3 4 4 4 4 5 5 5 6 5 4 4 4 4 4 4 5
1 0 0 1 1 1 1 2 2 2 2 2 2 2 2 2 2 2 3 3 3 3 4 4 3 4 4 3 4 5 5 5 5 5 6 6 5 5 4 4 4 4 4
0 0 0 1 1 1 1 2 2 2 2 2 2 2 2 2 2 3 3 3 3 4 4 4 4 4 4 4 4 5 5 6 7 7 6 7 5 6 5 5 6 5 5
1 1 1 1 1 2 2 2 2 2 2 2 2 2 2 2 3 3 3 3 3 3 4 4 4 5 4 4 5 5 5 6 7 7 7 7 7 7 6 6 6 5 4
1 0 0 1 2 2 2 2 2 2 2 2 2 2 3 3 3 4 4 3 3 3 4 4 4 4 4 5 5 5 5 5 6 7 7 8 8 9 8 7 7 6 5
0 1 1 1 2 2 3 3 3 3 2 2 2 3 3 3 3 3 4 4 3 4 4 4 4 4 4 4 5 5 5 5 5 6 7 8 9 11 9 7 7 7 6
2 1 1 2 2 2 3 3 3 3 2 2 3 3 3 3 4 4 4 4 4 4 3 4 4 5 4 7 8 6 5 5 6 6 6 7 9 11 13 13 12 12 10
2 2 2 2 3 3 3 3 3 3 3 3 3 4 3 4 4 4 4 4 4 4 4 4 4 5 6 9 9 9 5 5 6 6 6 6 7 9 7 10 12 13 15
2 2 2 3 3 3 3 3 3 3 3 3 4 4 4 4 4 4 4 4 4 4 4 5 5 5 6 9 9 10 6 5 6 6 7 7 7 7 8 8 8 8 9
2 2 1 2 2 2 3 3 3 3 3 4 4 4 4 4 4 5 5 5 4 4 4 5 5 5 6 9 9 8 4 4 5 6 6 6 6 9 11 8 8 8 7
0 0 1 1 2 2 2 2 3 3 4 5 5 5 4 4 5 5 5 4 4 5 5 5 4 5 6 9 9 8 4 4 4 5 6 8 8 9 10 7 7 8 7
0 0 0 1 1 2 2 3 3 4 5 5 5 5 5 5 5 5 4 4 5 5 5 5 5 5 6 8 10 10 4 4 4 5 4 5 9 10 10 8 6 9 7
1 1 1 2 2 2 2 3 4 5 5 5 5 5 5 5 4 4 5 5 4 5 5 5 5 4 5 7 8 10 9 7 5 5 4 5 9 10 10 7 7 9 6
1 1 1 2 2 2 2 3 5 5 5 5 5 5 5 5 5 4 5 4 4 3 4 4 5 5 4 5 10 11 10 10 6 5 8 8 9 8 6 7 8 6 4
1 1 1 2 3 3 3 4 5 5 5 5 5 5 5 5 5 4 4 4 4 4 4 4 5 5 4 4 4 5 6 8 7 5 7 9 8 6 6 6 4 3 4
2 1 2 3 4 4 4 4 4 4 5 5 5 5 5 5 5 5 4 5 4 5 5 5 4 5 5 6 9 6 4 4 4 4 3 2 2 3 3 2 3 3 3
2 2 2 3 4 4 4 4 4 4 4 5 5 4 4 4 4 5 6 8 9 12 12 10 8 6 8 11 12 11 10 10 8 4 2 2 2 3 3 3 3 3 3
Wind_Direction
153 113 86 70 63 49 45 38 58 60 69 71 75 81 49 35 21 102 104 137 133 138 140 137 134 156 160 156 145 132 126 114 118 100 72 28 30 49 49 59 75 69 60
63 99 97 83 78 71 49 49 42 55 57 46 33 339 101 281 292 282 126 139 149 155 157 150 155 171 163 157 157 150 138 145 144 133 128 94 10 3 17 50 98 95 67
174 163 136 118 96 73 65 46 20 29 36 44 53 50 40 29 7 328 266 277 194 178 184 174 169 177 176 174 175 173 162 167 188 162 151 159 190 240 331 344 29 92 91
174 161 133 127 138 114 64 137 109 40 33 67 105 122 137 244 268 273 259 284 245 195 197 183 182 181 184 184 185 183 178 168 181 189 183 171 157 160 198 297 311 330 261
166 166 159 150 88 42 43 87 101 60 36 90 143 157 204 297 293 299 269 268 273 207 193 198 194 191 189 192 192 185 184 183 187 185 172 150 139 159 167 218 253 294 275
101 85 77 73 53 35 22 24 87 34 13 68 179 185 212 278 286 285 270 268 278 240 207 201 210 209 203 198 200 198 194 195 191 192 189 181 178 184 178 191 207 235 261
112 86 73 66 47 27 10 1 14 355 339 330 272 253 228 217 225 234 237 244 268 269 238 229 217 218 222 211 201 205 205 200 197 197 202 201 203 187 178 175 192 230 263
126 101 63 54 27 1 350 345 341 328 309 277 265 276 270 243 245 246 246 236 242 250 242 248 241 231 222 221 208 213 216 204 204 207 203 203 210 198 193 183 175 201 257
146 129 62 39 2 331 320 314 323 317 304 289 273 268 269 274 273 272 268 255 254 264 247 241 253 254 233 223 216 220 225 210 209 209 207 208 210 206 204 193 185 182 209
146 131 84 3 345 332 328 334 323 304 303 302 290 293 280 275 275 274 266 268 266 269 254 243 247 255 251 231 219 224 227 216 217 212 209 212 212 207 205 203 205 202 199
204 213 320 334 340 347 358 347 335 338 340 332 314 302 288 284 282 273 270 266 265 269 257 239 238 244 247 245 233 233 222 222 224 218 215 217 211 208 208 208 210 209 198
147 45 1 360 2 351 345 338 331 334 329 324 319 310 305 296 290 285 276 272 265 272 265 248 241 241 245 244 237 242 230 222 226 223 219 221 215 214 211 209 214 213 206
104 40 26 5 345 337 328 323 327 324 324 325 324 317 318 313 302 296 292 283 278 285 272 250 245 245 243 245 243 239 241 234 231 225 223 222 215 217 217 216 217 217 219
156 144 341 325 326 328 326 316 319 323 324 321 317 311 310 306 302 302 299 294 284 279 272 256 251 250 250 252 249 244 242 244 245 234 227 224 219 219 216 217 217 211 213
204 233 273 305 317 322 324 324 324 327 327 322 316 309 309 310 310 311 309 303 295 288 280 264 257 256 249 249 249 245 243 240 246 246 236 232 230 229 225 221 214 207 210
235 253 280 294 296 303 312 320 320 323 323 314 311 314 317 315 313 311 310 309 304 302 295 283 262 257 260 267 264 260 249 245 242 247 244 240 237 236 238 235 227 215 210
247 256 267 275 288 295 304 305 310 316 322 319 318 319 314 312 310 311 314 308 302 301 295 284 275 262 262 267 268 268 261 250 247 246 245 245 242 239 229 234 236 233 229
239 253 268 292 306 313 321 318 320 322 321 320 318 318 316 310 312 312 309 305 298 294 289 285 279 274 269 271 271 272 262 254 252 250 248 243 242 236 229 224 225 227 227
234 248 274 299 315 321 324 328 329 329 324 319 315 313 309 306 309 307 304 299 296 296 290 287 285 284 281 275 275 277 261 257 257 256 257 250 239 242 242 227 219 223 229
347 269 335 339 324 322 334 334 325 325 321 317 314 310 305 300 299 297 297 298 298 296 295 294 290 284 284 281 277 276 256 256 260 262 261 255 250 244 245 228 211 219 222
19 66 23 321 309 323 335 327 324 317 314 316 316 315 313 305 298 297 299 300 300 302 299 296 294 290 287 287 284 277 263 251 254 255 258 257 257 255 251 244 222 227 225
19 29 352 321 320 329 330 321 316 315 317 316 316 314 313 311 310 305 303 303 299 297 297 298 300 294 291 293 289 285 277 269 252 252 255 255 257 258 254 248 237 237 229
346 345 330 322 325 325 320 308 310 317 317 317 315 311 311 311 312 304 301 301 296 293 296 294 294 296 295 294 297 295 289 283 272 255 256 257 256 257 253 250 248 235 210
333 341 336 324 317 317 312 301 310 321 318 314 313 313 312 311 312 307 299 294 293 291 290 289 288 289 291 292 293 292 291 287 284 275 266 261 261 261 254 250 246 227 213
323 318 307 303 303 310 309 313 319 322 318 313 312 311 310 308 307 304 296 296 281 283 284 276 277 283 284 289 295 297 288 280 264 267 262 254 245 244 240 233 228 220 214
308 309 306 303 303 306 306 308 312 312 312 314 315 311 309 308 308 308 307 301 301 302 298 294 291 284 286 296 297 300 298 294 283 277 248 237 236 242 242 235 230 226 218